Location: Alsip
(41.6689°N, 87.7387°W)
Time: 12:54:41
(UTC+00:00)

SeaSat 1 - Pass Details

Date: 14 July 2020
Orbit: 744 x 747 km, 108.0° (Epoch: 04 August)

Event Time Altitude Azimuth Distance (km) Brightness Sun altitude
Rises 07:16:14 0° 32° (NNE) 3,199 7.0 -24.1°
Reaches altitude 10° 07:18:36 10° 38° (NE) 2,271 5.9 -24.0°
Maximum altitude 07:23:21 46° 112° (ESE) 1,003 3.0 -23.7°
Enters shadow 07:24:07 42° 139° (SE) 1,056 3.0 -23.6°
